Index of /20260423/WXO-DD/model_rdps/10km/12/012
Name Last modified Size Description
Parent Directory -
20260423T12Z_MSC_RDPS_AbsoluteVorticity_IsbL-0250_RLatLon0.09_PT012H.grib2 2026-04-23 14:42 624K
20260423T12Z_MSC_RDPS_AbsoluteVorticity_IsbL-0500_RLatLon0.09_PT012H.grib2 2026-04-23 14:42 575K
20260423T12Z_MSC_RDPS_AbsoluteVorticity_IsbL-0700_RLatLon0.09_PT012H.grib2 2026-04-23 14:42 623K
20260423T12Z_MSC_RDPS_AbsoluteVorticity_IsbL-0850_RLatLon0.09_PT012H.grib2 2026-04-23 14:42 779K
20260423T12Z_MSC_RDPS_AirTemp_AGL-120m_RLatLon0.09_PT012H.grib2 2026-04-23 14:42 388K
20260423T12Z_MSC_RDPS_AirTemp_AGL-2m_RLatLon0.09_PT012H.grib2 2026-04-23 14:42 621K
20260423T12Z_MSC_RDPS_AirTemp_AGL-40m_RLatLon0.09_PT012H.grib2 2026-04-23 14:42 398K
20260423T12Z_MSC_RDPS_AirTemp_AGL-80m_RLatLon0.09_PT012H.grib2 2026-04-23 14:42 391K
20260423T12Z_MSC_RDPS_AirTemp_IsbL-0001_RLatLon0.09_PT012H.grib2 2026-04-23 14:42 303K
20260423T12Z_MSC_RDPS_AirTemp_IsbL-0005_RLatLon0.09_PT012H.grib2 2026-04-23 14:42 327K
20260423T12Z_MSC_RDPS_AirTemp_IsbL-0010_RLatLon0.09_PT012H.grib2 2026-04-23 14:42 299K
20260423T12Z_MSC_RDPS_AirTemp_IsbL-0020_RLatLon0.09_PT012H.grib2 2026-04-23 14:42 319K
20260423T12Z_MSC_RDPS_AirTemp_IsbL-0030_RLatLon0.09_PT012H.grib2 2026-04-23 14:42 337K
20260423T12Z_MSC_RDPS_AirTemp_IsbL-0050_RLatLon0.09_PT012H.grib2 2026-04-23 14:42 319K
20260423T12Z_MSC_RDPS_AirTemp_IsbL-0100_RLatLon0.09_PT012H.grib2 2026-04-23 14:42 427K
20260423T12Z_MSC_RDPS_AirTemp_IsbL-0150_RLatLon0.09_PT012H.grib2 2026-04-23 14:42 434K
20260423T12Z_MSC_RDPS_AirTemp_IsbL-0175_RLatLon0.09_PT012H.grib2 2026-04-23 14:42 433K
20260423T12Z_MSC_RDPS_AirTemp_IsbL-0200_RLatLon0.09_PT012H.grib2 2026-04-23 14:42 434K
20260423T12Z_MSC_RDPS_AirTemp_IsbL-0225_RLatLon0.09_PT012H.grib2 2026-04-23 14:42 431K
20260423T12Z_MSC_RDPS_AirTemp_IsbL-0250_RLatLon0.09_PT012H.grib2 2026-04-23 14:42 431K
20260423T12Z_MSC_RDPS_AirTemp_IsbL-0275_RLatLon0.09_PT012H.grib2 2026-04-23 14:42 411K
20260423T12Z_MSC_RDPS_AirTemp_IsbL-0300_RLatLon0.09_PT012H.grib2 2026-04-23 14:42 417K
20260423T12Z_MSC_RDPS_AirTemp_IsbL-0350_RLatLon0.09_PT012H.grib2 2026-04-23 14:42 431K
20260423T12Z_MSC_RDPS_AirTemp_IsbL-0400_RLatLon0.09_PT012H.grib2 2026-04-23 14:42 432K
20260423T12Z_MSC_RDPS_AirTemp_IsbL-0450_RLatLon0.09_PT012H.grib2 2026-04-23 14:42 441K
20260423T12Z_MSC_RDPS_AirTemp_IsbL-0500_RLatLon0.09_PT012H.grib2 2026-04-23 14:42 420K
20260423T12Z_MSC_RDPS_AirTemp_IsbL-0550_RLatLon0.09_PT012H.grib2 2026-04-23 14:42 441K
20260423T12Z_MSC_RDPS_AirTemp_IsbL-0600_RLatLon0.09_PT012H.grib2 2026-04-23 14:42 458K
20260423T12Z_MSC_RDPS_AirTemp_IsbL-0650_RLatLon0.09_PT012H.grib2 2026-04-23 14:42 470K
20260423T12Z_MSC_RDPS_AirTemp_IsbL-0700_RLatLon0.09_PT012H.grib2 2026-04-23 14:42 493K
20260423T12Z_MSC_RDPS_AirTemp_IsbL-0750_RLatLon0.09_PT012H.grib2 2026-04-23 14:42 416K
20260423T12Z_MSC_RDPS_AirTemp_IsbL-0800_RLatLon0.09_PT012H.grib2 2026-04-23 14:42 457K
20260423T12Z_MSC_RDPS_AirTemp_IsbL-0850_RLatLon0.09_PT012H.grib2 2026-04-23 14:42 494K
20260423T12Z_MSC_RDPS_AirTemp_IsbL-0875_RLatLon0.09_PT012H.grib2 2026-04-23 14:42 506K
20260423T12Z_MSC_RDPS_AirTemp_IsbL-0900_RLatLon0.09_PT012H.grib2 2026-04-23 14:42 513K
20260423T12Z_MSC_RDPS_AirTemp_IsbL-0925_RLatLon0.09_PT012H.grib2 2026-04-23 14:42 515K
20260423T12Z_MSC_RDPS_AirTemp_IsbL-0950_RLatLon0.09_PT012H.grib2 2026-04-23 14:42 515K
20260423T12Z_MSC_RDPS_AirTemp_IsbL-0970_RLatLon0.09_PT012H.grib2 2026-04-23 14:42 509K
20260423T12Z_MSC_RDPS_AirTemp_IsbL-0985_RLatLon0.09_PT012H.grib2 2026-04-23 14:42 515K
20260423T12Z_MSC_RDPS_AirTemp_IsbL-1000_RLatLon0.09_PT012H.grib2 2026-04-23 14:42 502K
20260423T12Z_MSC_RDPS_AirTemp_IsbL-1015_RLatLon0.09_PT012H.grib2 2026-04-23 14:42 498K
20260423T12Z_MSC_RDPS_Albedo_Sfc_RLatLon0.09_PT012H.grib2 2026-04-23 14:42 161K
20260423T12Z_MSC_RDPS_CAPE_Sfc_RLatLon0.09_PT012H.grib2 2026-04-23 14:42 1.7M
20260423T12Z_MSC_RDPS_CIN_Sfc_RLatLon0.09_PT012H.grib2 2026-04-23 14:42 1.2M
20260423T12Z_MSC_RDPS_CloudWater_EAtm_RLatLon0.09_PT012H.grib2 2026-04-23 14:42 216K
20260423T12Z_MSC_RDPS_ConvectivePrecip-Accum_Sfc_RLatLon0.09_PT012H.grib2 2026-04-23 14:42 695K
20260423T12Z_MSC_RDPS_DewPointDepression_AGL-2m_RLatLon0.09_PT012H.grib2 2026-04-23 14:42 408K
20260423T12Z_MSC_RDPS_DewPointDepression_IsbL-0001_RLatLon0.09_PT012H.grib2 2026-04-23 14:42 193
20260423T12Z_MSC_RDPS_DewPointDepression_IsbL-0005_RLatLon0.09_PT012H.grib2 2026-04-23 14:42 193
20260423T12Z_MSC_RDPS_DewPointDepression_IsbL-0010_RLatLon0.09_PT012H.grib2 2026-04-23 14:42 193
20260423T12Z_MSC_RDPS_DewPointDepression_IsbL-0020_RLatLon0.09_PT012H.grib2 2026-04-23 14:42 193
20260423T12Z_MSC_RDPS_DewPointDepression_IsbL-0030_RLatLon0.09_PT012H.grib2 2026-04-23 14:42 193
20260423T12Z_MSC_RDPS_DewPointDepression_IsbL-0050_RLatLon0.09_PT012H.grib2 2026-04-23 14:42 95K
20260423T12Z_MSC_RDPS_DewPointDepression_IsbL-0100_RLatLon0.09_PT012H.grib2 2026-04-23 14:42 125K
20260423T12Z_MSC_RDPS_DewPointDepression_IsbL-0150_RLatLon0.09_PT012H.grib2 2026-04-23 14:42 155K
20260423T12Z_MSC_RDPS_DewPointDepression_IsbL-0175_RLatLon0.09_PT012H.grib2 2026-04-23 14:42 197K
20260423T12Z_MSC_RDPS_DewPointDepression_IsbL-0200_RLatLon0.09_PT012H.grib2 2026-04-23 14:42 231K
20260423T12Z_MSC_RDPS_DewPointDepression_IsbL-0225_RLatLon0.09_PT012H.grib2 2026-04-23 14:42 270K
20260423T12Z_MSC_RDPS_DewPointDepression_IsbL-0250_RLatLon0.09_PT012H.grib2 2026-04-23 14:42 306K
20260423T12Z_MSC_RDPS_DewPointDepression_IsbL-0275_RLatLon0.09_PT012H.grib2 2026-04-23 14:42 314K
20260423T12Z_MSC_RDPS_DewPointDepression_IsbL-0300_RLatLon0.09_PT012H.grib2 2026-04-23 14:42 335K
20260423T12Z_MSC_RDPS_DewPointDepression_IsbL-0350_RLatLon0.09_PT012H.grib2 2026-04-23 14:42 339K
20260423T12Z_MSC_RDPS_DewPointDepression_IsbL-0400_RLatLon0.09_PT012H.grib2 2026-04-23 14:42 352K
20260423T12Z_MSC_RDPS_DewPointDepression_IsbL-0450_RLatLon0.09_PT012H.grib2 2026-04-23 14:42 364K
20260423T12Z_MSC_RDPS_DewPointDepression_IsbL-0500_RLatLon0.09_PT012H.grib2 2026-04-23 14:42 379K
20260423T12Z_MSC_RDPS_DewPointDepression_IsbL-0550_RLatLon0.09_PT012H.grib2 2026-04-23 14:42 389K
20260423T12Z_MSC_RDPS_DewPointDepression_IsbL-0600_RLatLon0.09_PT012H.grib2 2026-04-23 14:42 395K
20260423T12Z_MSC_RDPS_DewPointDepression_IsbL-0650_RLatLon0.09_PT012H.grib2 2026-04-23 14:42 391K
20260423T12Z_MSC_RDPS_DewPointDepression_IsbL-0700_RLatLon0.09_PT012H.grib2 2026-04-23 14:42 398K
20260423T12Z_MSC_RDPS_DewPointDepression_IsbL-0750_RLatLon0.09_PT012H.grib2 2026-04-23 14:42 414K
20260423T12Z_MSC_RDPS_DewPointDepression_IsbL-0800_RLatLon0.09_PT012H.grib2 2026-04-23 14:42 444K
20260423T12Z_MSC_RDPS_DewPointDepression_IsbL-0850_RLatLon0.09_PT012H.grib2 2026-04-23 14:42 462K
20260423T12Z_MSC_RDPS_DewPointDepression_IsbL-0875_RLatLon0.09_PT012H.grib2 2026-04-23 14:42 463K
20260423T12Z_MSC_RDPS_DewPointDepression_IsbL-0900_RLatLon0.09_PT012H.grib2 2026-04-23 14:42 457K
20260423T12Z_MSC_RDPS_DewPointDepression_IsbL-0925_RLatLon0.09_PT012H.grib2 2026-04-23 14:42 445K
20260423T12Z_MSC_RDPS_DewPointDepression_IsbL-0950_RLatLon0.09_PT012H.grib2 2026-04-23 14:42 434K
20260423T12Z_MSC_RDPS_DewPointDepression_IsbL-0970_RLatLon0.09_PT012H.grib2 2026-04-23 14:42 428K
20260423T12Z_MSC_RDPS_DewPointDepression_IsbL-0985_RLatLon0.09_PT012H.grib2 2026-04-23 14:42 424K
20260423T12Z_MSC_RDPS_DewPointDepression_IsbL-1000_RLatLon0.09_PT012H.grib2 2026-04-23 14:42 418K
20260423T12Z_MSC_RDPS_DewPointDepression_IsbL-1015_RLatLon0.09_PT012H.grib2 2026-04-23 14:42 407K
20260423T12Z_MSC_RDPS_DewPoint_AGL-2m_RLatLon0.09_PT012H.grib2 2026-04-23 14:42 390K
20260423T12Z_MSC_RDPS_DownwardLongwaveRadiationFlux-Accum_Sfc_RLatLon0.09_PT012H.grib2 2026-04-23 14:42 469K
20260423T12Z_MSC_RDPS_DownwardShortwaveRadiationFlux-Accum_NTAtm_RLatLon0.09_PT012H.grib2 2026-04-23 14:42 112K
20260423T12Z_MSC_RDPS_DownwardShortwaveRadiationFlux-Accum_Sfc_RLatLon0.09_PT012H.grib2 2026-04-23 14:42 587K
20260423T12Z_MSC_RDPS_FreezingRain-Accum12h_Sfc_RLatLon0.09_PT012H.grib2 2026-04-23 14:42 44K
20260423T12Z_MSC_RDPS_FreezingRain-Accum1h_Sfc_RLatLon0.09_PT012H.grib2 2026-04-23 14:42 22K
20260423T12Z_MSC_RDPS_FreezingRain-Accum3h_Sfc_RLatLon0.09_PT012H.grib2 2026-04-23 14:42 24K
20260423T12Z_MSC_RDPS_FreezingRain-Accum6h_Sfc_RLatLon0.09_PT012H.grib2 2026-04-23 14:42 33K
20260423T12Z_MSC_RDPS_FreezingRain-Accum_Sfc_RLatLon0.09_PT012H.grib2 2026-04-23 14:42 49K
20260423T12Z_MSC_RDPS_GeopotentialHeight_IsbL-0001_RLatLon0.09_PT012H.grib2 2026-04-23 14:42 274K
20260423T12Z_MSC_RDPS_GeopotentialHeight_IsbL-0005_RLatLon0.09_PT012H.grib2 2026-04-23 14:42 308K
20260423T12Z_MSC_RDPS_GeopotentialHeight_IsbL-0010_RLatLon0.09_PT012H.grib2 2026-04-23 14:42 338K
20260423T12Z_MSC_RDPS_GeopotentialHeight_IsbL-0020_RLatLon0.09_PT012H.grib2 2026-04-23 14:42 305K
20260423T12Z_MSC_RDPS_GeopotentialHeight_IsbL-0030_RLatLon0.09_PT012H.grib2 2026-04-23 14:42 308K
20260423T12Z_MSC_RDPS_GeopotentialHeight_IsbL-0050_RLatLon0.09_PT012H.grib2 2026-04-23 14:42 309K
20260423T12Z_MSC_RDPS_GeopotentialHeight_IsbL-0100_RLatLon0.09_PT012H.grib2 2026-04-23 14:42 291K
20260423T12Z_MSC_RDPS_GeopotentialHeight_IsbL-0150_RLatLon0.09_PT012H.grib2 2026-04-23 14:42 232K
20260423T12Z_MSC_RDPS_GeopotentialHeight_IsbL-0175_RLatLon0.09_PT012H.grib2 2026-04-23 14:42 237K
20260423T12Z_MSC_RDPS_GeopotentialHeight_IsbL-0200_RLatLon0.09_PT012H.grib2 2026-04-23 14:42 242K
20260423T12Z_MSC_RDPS_GeopotentialHeight_IsbL-0225_RLatLon0.09_PT012H.grib2 2026-04-23 14:42 244K
20260423T12Z_MSC_RDPS_GeopotentialHeight_IsbL-0250_RLatLon0.09_PT012H.grib2 2026-04-23 14:42 245K
20260423T12Z_MSC_RDPS_GeopotentialHeight_IsbL-0275_RLatLon0.09_PT012H.grib2 2026-04-23 14:42 244K
20260423T12Z_MSC_RDPS_GeopotentialHeight_IsbL-0300_RLatLon0.09_PT012H.grib2 2026-04-23 14:42 243K
20260423T12Z_MSC_RDPS_GeopotentialHeight_IsbL-0350_RLatLon0.09_PT012H.grib2 2026-04-23 14:42 238K
20260423T12Z_MSC_RDPS_GeopotentialHeight_IsbL-0400_RLatLon0.09_PT012H.grib2 2026-04-23 14:42 308K
20260423T12Z_MSC_RDPS_GeopotentialHeight_IsbL-0450_RLatLon0.09_PT012H.grib2 2026-04-23 14:42 302K
20260423T12Z_MSC_RDPS_GeopotentialHeight_IsbL-0500_RLatLon0.09_PT012H.grib2 2026-04-23 14:42 298K
20260423T12Z_MSC_RDPS_GeopotentialHeight_IsbL-0550_RLatLon0.09_PT012H.grib2 2026-04-23 14:42 294K
20260423T12Z_MSC_RDPS_GeopotentialHeight_IsbL-0600_RLatLon0.09_PT012H.grib2 2026-04-23 14:42 290K
20260423T12Z_MSC_RDPS_GeopotentialHeight_IsbL-0650_RLatLon0.09_PT012H.grib2 2026-04-23 14:42 260K
20260423T12Z_MSC_RDPS_GeopotentialHeight_IsbL-0700_RLatLon0.09_PT012H.grib2 2026-04-23 14:42 258K
20260423T12Z_MSC_RDPS_GeopotentialHeight_IsbL-0750_RLatLon0.09_PT012H.grib2 2026-04-23 14:42 260K
20260423T12Z_MSC_RDPS_GeopotentialHeight_IsbL-0800_RLatLon0.09_PT012H.grib2 2026-04-23 14:42 350K
20260423T12Z_MSC_RDPS_GeopotentialHeight_IsbL-0850_RLatLon0.09_PT012H.grib2 2026-04-23 14:42 356K
20260423T12Z_MSC_RDPS_GeopotentialHeight_IsbL-0875_RLatLon0.09_PT012H.grib2 2026-04-23 14:42 358K
20260423T12Z_MSC_RDPS_GeopotentialHeight_IsbL-0900_RLatLon0.09_PT012H.grib2 2026-04-23 14:42 364K
20260423T12Z_MSC_RDPS_GeopotentialHeight_IsbL-0925_RLatLon0.09_PT012H.grib2 2026-04-23 14:42 366K
20260423T12Z_MSC_RDPS_GeopotentialHeight_IsbL-0950_RLatLon0.09_PT012H.grib2 2026-04-23 14:42 367K
20260423T12Z_MSC_RDPS_GeopotentialHeight_IsbL-0970_RLatLon0.09_PT012H.grib2 2026-04-23 14:42 373K
20260423T12Z_MSC_RDPS_GeopotentialHeight_IsbL-0985_RLatLon0.09_PT012H.grib2 2026-04-23 14:42 382K
20260423T12Z_MSC_RDPS_GeopotentialHeight_IsbL-1000_RLatLon0.09_PT012H.grib2 2026-04-23 14:42 393K
20260423T12Z_MSC_RDPS_GeopotentialHeight_IsbL-1015_RLatLon0.09_PT012H.grib2 2026-04-23 14:42 407K
20260423T12Z_MSC_RDPS_Humidex_Sfc_RLatLon0.09_PT012H.grib2 2026-04-23 14:42 2.4M
20260423T12Z_MSC_RDPS_IcePellets-Accum12h_Sfc_RLatLon0.09_PT012H.grib2 2026-04-23 14:42 21K
20260423T12Z_MSC_RDPS_IcePellets-Accum1h_Sfc_RLatLon0.09_PT012H.grib2 2026-04-23 14:42 11K
20260423T12Z_MSC_RDPS_IcePellets-Accum3h_Sfc_RLatLon0.09_PT012H.grib2 2026-04-23 14:42 10K
20260423T12Z_MSC_RDPS_IcePellets-Accum6h_Sfc_RLatLon0.09_PT012H.grib2 2026-04-23 14:42 15K
20260423T12Z_MSC_RDPS_IcePellets-Accum_Sfc_RLatLon0.09_PT012H.grib2 2026-04-23 14:42 25K
20260423T12Z_MSC_RDPS_KIndex_Sfc_RLatLon0.09_PT012H.grib2 2026-04-23 14:42 2.3M
20260423T12Z_MSC_RDPS_LatentHeatNetFlux_Sfc_RLatLon0.09_PT012H.grib2 2026-04-23 14:42 352K
20260423T12Z_MSC_RDPS_LiftedIndex-MU-VT_IsbL-0500_RLatLon0.09_PT012H.grib2 2026-04-23 14:42 2.4M
20260423T12Z_MSC_RDPS_NetLongwaveRadiationFlux-Accum_Sfc_RLatLon0.09_PT012H.grib2 2026-04-23 14:42 494K
20260423T12Z_MSC_RDPS_NetShortwaveRadiationFlux-Accum_Sfc_RLatLon0.09_PT012H.grib2 2026-04-23 14:42 590K
20260423T12Z_MSC_RDPS_PlanetaryBoundaryLayerHeight_Sfc_RLatLon0.09_PT012H.grib2 2026-04-23 14:42 1.0M
20260423T12Z_MSC_RDPS_Precip-Accum12h_Sfc_RLatLon0.09_PT012H.grib2 2026-04-23 14:42 1.7M
20260423T12Z_MSC_RDPS_Precip-Accum1h_Sfc_RLatLon0.09_PT012H.grib2 2026-04-23 14:42 1.1M
20260423T12Z_MSC_RDPS_Precip-Accum3h_Sfc_RLatLon0.09_PT012H.grib2 2026-04-23 14:42 1.3M
20260423T12Z_MSC_RDPS_Precip-Accum6h_Sfc_RLatLon0.09_PT012H.grib2 2026-04-23 14:42 1.5M
20260423T12Z_MSC_RDPS_Precip-Accum_Sfc_RLatLon0.09_PT012H.grib2 2026-04-23 14:42 1.7M
20260423T12Z_MSC_RDPS_PrecipRate_Sfc_RLatLon0.09_PT012H.grib2 2026-04-23 14:42 178K
20260423T12Z_MSC_RDPS_PrecipType-Instant_Sfc_RLatLon0.09_PT012H.grib2 2026-04-23 14:42 547K
20260423T12Z_MSC_RDPS_Pressure-Trend3h_Sfc_RLatLon0.09_PT012H.grib2 2026-04-23 14:42 1.2M
20260423T12Z_MSC_RDPS_Pressure_MSL_RLatLon0.09_PT012H.grib2 2026-04-23 14:42 329K
20260423T12Z_MSC_RDPS_Pressure_PVU-1.5_RLatLon0.09_PT012H.grib2 2026-04-23 14:42 2.5M
20260423T12Z_MSC_RDPS_Pressure_PVU-1_RLatLon0.09_PT012H.grib2 2026-04-23 14:42 2.4M
20260423T12Z_MSC_RDPS_Pressure_PVU-2_RLatLon0.09_PT012H.grib2 2026-04-23 14:42 2.4M
20260423T12Z_MSC_RDPS_Pressure_Sfc_RLatLon0.09_PT012H.grib2 2026-04-23 14:42 501K
20260423T12Z_MSC_RDPS_RadiativeTemp_Sfc_RLatLon0.09_PT012H.grib2 2026-04-23 14:42 314K
20260423T12Z_MSC_RDPS_Rain-Accum12h_Sfc_RLatLon0.09_PT012H.grib2 2026-04-23 14:42 1.1M
20260423T12Z_MSC_RDPS_Rain-Accum1h_Sfc_RLatLon0.09_PT012H.grib2 2026-04-23 14:42 547K
20260423T12Z_MSC_RDPS_Rain-Accum3h_Sfc_RLatLon0.09_PT012H.grib2 2026-04-23 14:42 637K
20260423T12Z_MSC_RDPS_Rain-Accum6h_Sfc_RLatLon0.09_PT012H.grib2 2026-04-23 14:42 905K
20260423T12Z_MSC_RDPS_Rain-Accum_Sfc_RLatLon0.09_PT012H.grib2 2026-04-23 14:42 1.2M
20260423T12Z_MSC_RDPS_RelativeHumidity_AGL-2m_RLatLon0.09_PT012H.grib2 2026-04-23 14:42 1.0M
20260423T12Z_MSC_RDPS_RelativeHumidity_IsbL-0010_RLatLon0.09_PT012H.grib2 2026-04-23 14:42 623K
20260423T12Z_MSC_RDPS_RelativeHumidity_IsbL-0020_RLatLon0.09_PT012H.grib2 2026-04-23 14:42 653K
20260423T12Z_MSC_RDPS_RelativeHumidity_IsbL-0030_RLatLon0.09_PT012H.grib2 2026-04-23 14:42 543K
20260423T12Z_MSC_RDPS_RelativeHumidity_IsbL-0050_RLatLon0.09_PT012H.grib2 2026-04-23 14:42 274K
20260423T12Z_MSC_RDPS_RelativeHumidity_IsbL-0100_RLatLon0.09_PT012H.grib2 2026-04-23 14:42 259K
20260423T12Z_MSC_RDPS_RelativeHumidity_IsbL-0150_RLatLon0.09_PT012H.grib2 2026-04-23 14:42 398K
20260423T12Z_MSC_RDPS_RelativeHumidity_IsbL-0175_RLatLon0.09_PT012H.grib2 2026-04-23 14:42 495K
20260423T12Z_MSC_RDPS_RelativeHumidity_IsbL-0200_RLatLon0.09_PT012H.grib2 2026-04-23 14:42 579K
20260423T12Z_MSC_RDPS_RelativeHumidity_IsbL-0225_RLatLon0.09_PT012H.grib2 2026-04-23 14:42 645K
20260423T12Z_MSC_RDPS_RelativeHumidity_IsbL-0250_RLatLon0.09_PT012H.grib2 2026-04-23 14:42 708K
20260423T12Z_MSC_RDPS_RelativeHumidity_IsbL-0275_RLatLon0.09_PT012H.grib2 2026-04-23 14:42 732K
20260423T12Z_MSC_RDPS_RelativeHumidity_IsbL-0300_RLatLon0.09_PT012H.grib2 2026-04-23 14:42 772K
20260423T12Z_MSC_RDPS_RelativeHumidity_IsbL-0350_RLatLon0.09_PT012H.grib2 2026-04-23 14:42 786K
20260423T12Z_MSC_RDPS_RelativeHumidity_IsbL-0400_RLatLon0.09_PT012H.grib2 2026-04-23 14:42 797K
20260423T12Z_MSC_RDPS_RelativeHumidity_IsbL-0450_RLatLon0.09_PT012H.grib2 2026-04-23 14:42 808K
20260423T12Z_MSC_RDPS_RelativeHumidity_IsbL-0500_RLatLon0.09_PT012H.grib2 2026-04-23 14:42 824K
20260423T12Z_MSC_RDPS_RelativeHumidity_IsbL-0550_RLatLon0.09_PT012H.grib2 2026-04-23 14:42 847K
20260423T12Z_MSC_RDPS_RelativeHumidity_IsbL-0600_RLatLon0.09_PT012H.grib2 2026-04-23 14:42 874K
20260423T12Z_MSC_RDPS_RelativeHumidity_IsbL-0650_RLatLon0.09_PT012H.grib2 2026-04-23 14:42 866K
20260423T12Z_MSC_RDPS_RelativeHumidity_IsbL-0700_RLatLon0.09_PT012H.grib2 2026-04-23 14:42 893K
20260423T12Z_MSC_RDPS_RelativeHumidity_IsbL-0750_RLatLon0.09_PT012H.grib2 2026-04-23 14:42 929K
20260423T12Z_MSC_RDPS_RelativeHumidity_IsbL-0800_RLatLon0.09_PT012H.grib2 2026-04-23 14:42 1.0M
20260423T12Z_MSC_RDPS_RelativeHumidity_IsbL-0850_RLatLon0.09_PT012H.grib2 2026-04-23 14:42 1.0M
20260423T12Z_MSC_RDPS_RelativeHumidity_IsbL-0875_RLatLon0.09_PT012H.grib2 2026-04-23 14:42 1.0M
20260423T12Z_MSC_RDPS_RelativeHumidity_IsbL-0900_RLatLon0.09_PT012H.grib2 2026-04-23 14:42 1.0M
20260423T12Z_MSC_RDPS_RelativeHumidity_IsbL-0925_RLatLon0.09_PT012H.grib2 2026-04-23 14:42 1.0M
20260423T12Z_MSC_RDPS_RelativeHumidity_IsbL-0950_RLatLon0.09_PT012H.grib2 2026-04-23 14:42 1.0M
20260423T12Z_MSC_RDPS_RelativeHumidity_IsbL-0970_RLatLon0.09_PT012H.grib2 2026-04-23 14:42 1.0M
20260423T12Z_MSC_RDPS_RelativeHumidity_IsbL-0985_RLatLon0.09_PT012H.grib2 2026-04-23 14:42 1.0M
20260423T12Z_MSC_RDPS_RelativeHumidity_IsbL-1000_RLatLon0.09_PT012H.grib2 2026-04-23 14:42 1.0M
20260423T12Z_MSC_RDPS_RelativeHumidity_IsbL-1015_RLatLon0.09_PT012H.grib2 2026-04-23 14:42 1.0M
20260423T12Z_MSC_RDPS_Runoff-Accum_Sfc_RLatLon0.09_PT012H.grib2 2026-04-23 14:42 50K
20260423T12Z_MSC_RDPS_SWEATIndex_Sfc_RLatLon0.09_PT012H.grib2 2026-04-23 14:42 2.4M
20260423T12Z_MSC_RDPS_SeeingIndex_EAtm_RLatLon0.09_PT012H.grib2 2026-04-23 14:42 1.0M
20260423T12Z_MSC_RDPS_SensibleHeatNetFlux_Sfc_RLatLon0.09_PT012H.grib2 2026-04-23 14:42 320K
20260423T12Z_MSC_RDPS_ShowalterIndex_IsbL-0500_RLatLon0.09_PT012H.grib2 2026-04-23 14:42 2.6M
20260423T12Z_MSC_RDPS_SkyTransparencyIndex_EAtm_RLatLon0.09_PT012H.grib2 2026-04-23 14:42 740K
20260423T12Z_MSC_RDPS_Snow-Accum12h_Sfc_RLatLon0.09_PT012H.grib2 2026-04-23 14:42 617K
20260423T12Z_MSC_RDPS_Snow-Accum1h_Sfc_RLatLon0.09_PT012H.grib2 2026-04-23 14:42 447K
20260423T12Z_MSC_RDPS_Snow-Accum3h_Sfc_RLatLon0.09_PT012H.grib2 2026-04-23 14:42 482K
20260423T12Z_MSC_RDPS_Snow-Accum6h_Sfc_RLatLon0.09_PT012H.grib2 2026-04-23 14:42 588K
20260423T12Z_MSC_RDPS_Snow-Accum_Sfc_RLatLon0.09_PT012H.grib2 2026-04-23 14:42 696K
20260423T12Z_MSC_RDPS_SnowDensity_Sfc_RLatLon0.09_PT012H.grib2 2026-04-23 14:42 174K
20260423T12Z_MSC_RDPS_SnowDepth_Sfc_RLatLon0.09_PT012H.grib2 2026-04-23 14:42 706K
20260423T12Z_MSC_RDPS_SoilTemp_DBS-0to10cm_RLatLon0.09_PT012H.grib2 2026-04-23 14:42 220K
20260423T12Z_MSC_RDPS_SoilTemp_Sfc_RLatLon0.09_PT012H.grib2 2026-04-23 14:42 277K
20260423T12Z_MSC_RDPS_SoilVolumetricIceContent_Sfc_RLatLon0.09_PT012H.grib2 2026-04-23 14:42 168K
20260423T12Z_MSC_RDPS_SoilVolumetricWaterContent_DBS-0to10cm_RLatLon0.09_PT012H.grib2 2026-04-23 14:42 251K
20260423T12Z_MSC_RDPS_SoilVolumetricWaterContent_DBS-0to1cm_RLatLon0.09_PT012H.grib2 2026-04-23 14:42 335K
20260423T12Z_MSC_RDPS_SpecificHumidity_AGL-120m_RLatLon0.09_PT012H.grib2 2026-04-23 14:42 471K
20260423T12Z_MSC_RDPS_SpecificHumidity_AGL-2m_RLatLon0.09_PT012H.grib2 2026-04-23 14:42 639K
20260423T12Z_MSC_RDPS_SpecificHumidity_AGL-40m_RLatLon0.09_PT012H.grib2 2026-04-23 14:42 478K
20260423T12Z_MSC_RDPS_SpecificHumidity_AGL-80m_RLatLon0.09_PT012H.grib2 2026-04-23 14:42 473K
20260423T12Z_MSC_RDPS_SpecificHumidity_IsbL-0001_RLatLon0.09_PT012H.grib2 2026-04-23 14:42 332K
20260423T12Z_MSC_RDPS_SpecificHumidity_IsbL-0005_RLatLon0.09_PT012H.grib2 2026-04-23 14:42 349K
20260423T12Z_MSC_RDPS_SpecificHumidity_IsbL-0010_RLatLon0.09_PT012H.grib2 2026-04-23 14:42 390K
20260423T12Z_MSC_RDPS_SpecificHumidity_IsbL-0020_RLatLon0.09_PT012H.grib2 2026-04-23 14:42 381K
20260423T12Z_MSC_RDPS_SpecificHumidity_IsbL-0030_RLatLon0.09_PT012H.grib2 2026-04-23 14:42 479K
20260423T12Z_MSC_RDPS_SpecificHumidity_IsbL-0050_RLatLon0.09_PT012H.grib2 2026-04-23 14:42 472K
20260423T12Z_MSC_RDPS_SpecificHumidity_IsbL-0100_RLatLon0.09_PT012H.grib2 2026-04-23 14:42 510K
20260423T12Z_MSC_RDPS_SpecificHumidity_IsbL-0150_RLatLon0.09_PT012H.grib2 2026-04-23 14:42 441K
20260423T12Z_MSC_RDPS_SpecificHumidity_IsbL-0175_RLatLon0.09_PT012H.grib2 2026-04-23 14:42 449K
20260423T12Z_MSC_RDPS_SpecificHumidity_IsbL-0200_RLatLon0.09_PT012H.grib2 2026-04-23 14:42 570K
20260423T12Z_MSC_RDPS_SpecificHumidity_IsbL-0225_RLatLon0.09_PT012H.grib2 2026-04-23 14:42 574K
20260423T12Z_MSC_RDPS_SpecificHumidity_IsbL-0250_RLatLon0.09_PT012H.grib2 2026-04-23 14:42 572K
20260423T12Z_MSC_RDPS_SpecificHumidity_IsbL-0275_RLatLon0.09_PT012H.grib2 2026-04-23 14:42 488K
20260423T12Z_MSC_RDPS_SpecificHumidity_IsbL-0300_RLatLon0.09_PT012H.grib2 2026-04-23 14:42 558K
20260423T12Z_MSC_RDPS_SpecificHumidity_IsbL-0350_RLatLon0.09_PT012H.grib2 2026-04-23 14:42 544K
20260423T12Z_MSC_RDPS_SpecificHumidity_IsbL-0400_RLatLon0.09_PT012H.grib2 2026-04-23 14:42 525K
20260423T12Z_MSC_RDPS_SpecificHumidity_IsbL-0450_RLatLon0.09_PT012H.grib2 2026-04-23 14:42 581K
20260423T12Z_MSC_RDPS_SpecificHumidity_IsbL-0500_RLatLon0.09_PT012H.grib2 2026-04-23 14:42 524K
20260423T12Z_MSC_RDPS_SpecificHumidity_IsbL-0550_RLatLon0.09_PT012H.grib2 2026-04-23 14:42 583K
20260423T12Z_MSC_RDPS_SpecificHumidity_IsbL-0600_RLatLon0.09_PT012H.grib2 2026-04-23 14:42 649K
20260423T12Z_MSC_RDPS_SpecificHumidity_IsbL-0650_RLatLon0.09_PT012H.grib2 2026-04-23 14:42 558K
20260423T12Z_MSC_RDPS_SpecificHumidity_IsbL-0700_RLatLon0.09_PT012H.grib2 2026-04-23 14:42 595K
20260423T12Z_MSC_RDPS_SpecificHumidity_IsbL-0750_RLatLon0.09_PT012H.grib2 2026-04-23 14:42 645K
20260423T12Z_MSC_RDPS_SpecificHumidity_IsbL-0800_RLatLon0.09_PT012H.grib2 2026-04-23 14:42 726K
20260423T12Z_MSC_RDPS_SpecificHumidity_IsbL-0850_RLatLon0.09_PT012H.grib2 2026-04-23 14:42 787K
20260423T12Z_MSC_RDPS_SpecificHumidity_IsbL-0875_RLatLon0.09_PT012H.grib2 2026-04-23 14:42 808K
20260423T12Z_MSC_RDPS_SpecificHumidity_IsbL-0900_RLatLon0.09_PT012H.grib2 2026-04-23 14:42 822K
20260423T12Z_MSC_RDPS_SpecificHumidity_IsbL-0925_RLatLon0.09_PT012H.grib2 2026-04-23 14:42 686K
20260423T12Z_MSC_RDPS_SpecificHumidity_IsbL-0950_RLatLon0.09_PT012H.grib2 2026-04-23 14:42 682K
20260423T12Z_MSC_RDPS_SpecificHumidity_IsbL-0970_RLatLon0.09_PT012H.grib2 2026-04-23 14:42 676K
20260423T12Z_MSC_RDPS_SpecificHumidity_IsbL-0985_RLatLon0.09_PT012H.grib2 2026-04-23 14:42 668K
20260423T12Z_MSC_RDPS_SpecificHumidity_IsbL-1000_RLatLon0.09_PT012H.grib2 2026-04-23 14:42 661K
20260423T12Z_MSC_RDPS_SpecificHumidity_IsbL-1015_RLatLon0.09_PT012H.grib2 2026-04-23 14:42 649K
20260423T12Z_MSC_RDPS_SpecificHumidity_Sfc_RLatLon0.09_PT012H.grib2 2026-04-23 14:42 326K
20260423T12Z_MSC_RDPS_StormRelativeHelicity_EtaL-10000_RLatLon0.09_PT012H.grib2 2026-04-23 14:42 1.1M
20260423T12Z_MSC_RDPS_StormSeverityIndex_EtaL-10000_RLatLon0.09_PT012H.grib2 2026-04-23 14:42 1.2M
20260423T12Z_MSC_RDPS_Thickness_IsbL-0850to0700_RLatLon0.09_PT012H.grib2 2026-04-23 14:42 177K
20260423T12Z_MSC_RDPS_Thickness_IsbL-1000to0500_RLatLon0.09_PT012H.grib2 2026-04-23 14:42 200K
20260423T12Z_MSC_RDPS_Thickness_IsbL-1000to0850_RLatLon0.09_PT012H.grib2 2026-04-23 14:42 186K
20260423T12Z_MSC_RDPS_TotalCloudCover_Sfc_RLatLon0.09_PT012H.grib2 2026-04-23 14:42 649K
20260423T12Z_MSC_RDPS_TotalTotalsIndex_Sfc_RLatLon0.09_PT012H.grib2 2026-04-23 14:42 2.3M
20260423T12Z_MSC_RDPS_UVIndex-ClearSky_Sfc_RLatLon0.09_PT012H.grib2 2026-04-23 14:42 180K
20260423T12Z_MSC_RDPS_UVIndex_Sfc_RLatLon0.09_PT012H.grib2 2026-04-23 14:42 376K
20260423T12Z_MSC_RDPS_UpwardLongwaveRadiationFlux_NTAtm_RLatLon0.09_PT012H.grib2 2026-04-23 14:42 497K
20260423T12Z_MSC_RDPS_UpwardShortwaveRadiationFlux_NTAtm_RLatLon0.09_PT012H.grib2 2026-04-23 14:42 331K
20260423T12Z_MSC_RDPS_VerticalVelocity_IsbL-0250_RLatLon0.09_PT012H.grib2 2026-04-23 14:42 473K
20260423T12Z_MSC_RDPS_VerticalVelocity_IsbL-0500_RLatLon0.09_PT012H.grib2 2026-04-23 14:42 589K
20260423T12Z_MSC_RDPS_VerticalVelocity_IsbL-0700_RLatLon0.09_PT012H.grib2 2026-04-23 14:42 612K
20260423T12Z_MSC_RDPS_VerticalVelocity_IsbL-0850_RLatLon0.09_PT012H.grib2 2026-04-23 14:42 704K
20260423T12Z_MSC_RDPS_VerticalWindShear_EtaL-6500_RLatLon0.09_PT012H.grib2 2026-04-23 14:42 1.2M
20260423T12Z_MSC_RDPS_WindChill_Sfc_RLatLon0.09_PT012H.grib2 2026-04-23 14:42 1.2M
20260423T12Z_MSC_RDPS_WindDir_AGL-10m_RLatLon0.09_PT012H.grib2 2026-04-23 14:42 940K
20260423T12Z_MSC_RDPS_WindDir_AGL-120m_RLatLon0.09_PT012H.grib2 2026-04-23 14:42 589K
20260423T12Z_MSC_RDPS_WindDir_AGL-40m_RLatLon0.09_PT012H.grib2 2026-04-23 14:42 611K
20260423T12Z_MSC_RDPS_WindDir_AGL-80m_RLatLon0.09_PT012H.grib2 2026-04-23 14:42 598K
20260423T12Z_MSC_RDPS_WindDir_IsbL-0001_RLatLon0.09_PT012H.grib2 2026-04-23 14:42 262K
20260423T12Z_MSC_RDPS_WindDir_IsbL-0005_RLatLon0.09_PT012H.grib2 2026-04-23 14:42 376K
20260423T12Z_MSC_RDPS_WindDir_IsbL-0010_RLatLon0.09_PT012H.grib2 2026-04-23 14:42 391K
20260423T12Z_MSC_RDPS_WindDir_IsbL-0020_RLatLon0.09_PT012H.grib2 2026-04-23 14:42 408K
20260423T12Z_MSC_RDPS_WindDir_IsbL-0030_RLatLon0.09_PT012H.grib2 2026-04-23 14:42 399K
20260423T12Z_MSC_RDPS_WindDir_IsbL-0050_RLatLon0.09_PT012H.grib2 2026-04-23 14:42 429K
20260423T12Z_MSC_RDPS_WindDir_IsbL-0100_RLatLon0.09_PT012H.grib2 2026-04-23 14:42 424K
20260423T12Z_MSC_RDPS_WindDir_IsbL-0150_RLatLon0.09_PT012H.grib2 2026-04-23 14:42 424K
20260423T12Z_MSC_RDPS_WindDir_IsbL-0175_RLatLon0.09_PT012H.grib2 2026-04-23 14:42 444K
20260423T12Z_MSC_RDPS_WindDir_IsbL-0200_RLatLon0.09_PT012H.grib2 2026-04-23 14:42 452K
20260423T12Z_MSC_RDPS_WindDir_IsbL-0225_RLatLon0.09_PT012H.grib2 2026-04-23 14:42 450K
20260423T12Z_MSC_RDPS_WindDir_IsbL-0250_RLatLon0.09_PT012H.grib2 2026-04-23 14:42 449K
20260423T12Z_MSC_RDPS_WindDir_IsbL-0275_RLatLon0.09_PT012H.grib2 2026-04-23 14:42 468K
20260423T12Z_MSC_RDPS_WindDir_IsbL-0300_RLatLon0.09_PT012H.grib2 2026-04-23 14:42 466K
20260423T12Z_MSC_RDPS_WindDir_IsbL-0350_RLatLon0.09_PT012H.grib2 2026-04-23 14:42 487K
20260423T12Z_MSC_RDPS_WindDir_IsbL-0400_RLatLon0.09_PT012H.grib2 2026-04-23 14:42 507K
20260423T12Z_MSC_RDPS_WindDir_IsbL-0450_RLatLon0.09_PT012H.grib2 2026-04-23 14:42 530K
20260423T12Z_MSC_RDPS_WindDir_IsbL-0500_RLatLon0.09_PT012H.grib2 2026-04-23 14:42 553K
20260423T12Z_MSC_RDPS_WindDir_IsbL-0550_RLatLon0.09_PT012H.grib2 2026-04-23 14:42 577K
20260423T12Z_MSC_RDPS_WindDir_IsbL-0600_RLatLon0.09_PT012H.grib2 2026-04-23 14:42 603K
20260423T12Z_MSC_RDPS_WindDir_IsbL-0650_RLatLon0.09_PT012H.grib2 2026-04-23 14:42 641K
20260423T12Z_MSC_RDPS_WindDir_IsbL-0700_RLatLon0.09_PT012H.grib2 2026-04-23 14:42 682K
20260423T12Z_MSC_RDPS_WindDir_IsbL-0750_RLatLon0.09_PT012H.grib2 2026-04-23 14:42 734K
20260423T12Z_MSC_RDPS_WindDir_IsbL-0800_RLatLon0.09_PT012H.grib2 2026-04-23 14:42 796K
20260423T12Z_MSC_RDPS_WindDir_IsbL-0850_RLatLon0.09_PT012H.grib2 2026-04-23 14:42 857K
20260423T12Z_MSC_RDPS_WindDir_IsbL-0875_RLatLon0.09_PT012H.grib2 2026-04-23 14:42 874K
20260423T12Z_MSC_RDPS_WindDir_IsbL-0900_RLatLon0.09_PT012H.grib2 2026-04-23 14:42 891K
20260423T12Z_MSC_RDPS_WindDir_IsbL-0925_RLatLon0.09_PT012H.grib2 2026-04-23 14:42 896K
20260423T12Z_MSC_RDPS_WindDir_IsbL-0950_RLatLon0.09_PT012H.grib2 2026-04-23 14:42 890K
20260423T12Z_MSC_RDPS_WindDir_IsbL-0970_RLatLon0.09_PT012H.grib2 2026-04-23 14:42 895K
20260423T12Z_MSC_RDPS_WindDir_IsbL-0985_RLatLon0.09_PT012H.grib2 2026-04-23 14:42 904K
20260423T12Z_MSC_RDPS_WindDir_IsbL-1000_RLatLon0.09_PT012H.grib2 2026-04-23 14:42 917K
20260423T12Z_MSC_RDPS_WindDir_IsbL-1015_RLatLon0.09_PT012H.grib2 2026-04-23 14:42 932K
20260423T12Z_MSC_RDPS_WindGust-Max_AGL-10m_RLatLon0.09_PT012H.grib2 2026-04-23 14:42 1.0M
20260423T12Z_MSC_RDPS_WindGust-Min_AGL-10m_RLatLon0.09_PT012H.grib2 2026-04-23 14:42 972K
20260423T12Z_MSC_RDPS_WindGust_AGL-10m_RLatLon0.09_PT012H.grib2 2026-04-23 14:42 1.0M
20260423T12Z_MSC_RDPS_WindSpeed_AGL-10m_RLatLon0.09_PT012H.grib2 2026-04-23 14:42 840K
20260423T12Z_MSC_RDPS_WindSpeed_AGL-120m_RLatLon0.09_PT012H.grib2 2026-04-23 14:42 535K
20260423T12Z_MSC_RDPS_WindSpeed_AGL-40m_RLatLon0.09_PT012H.grib2 2026-04-23 14:42 542K
20260423T12Z_MSC_RDPS_WindSpeed_AGL-80m_RLatLon0.09_PT012H.grib2 2026-04-23 14:42 537K
20260423T12Z_MSC_RDPS_WindSpeed_IsbL-0001_RLatLon0.09_PT012H.grib2 2026-04-23 14:42 245K
20260423T12Z_MSC_RDPS_WindSpeed_IsbL-0005_RLatLon0.09_PT012H.grib2 2026-04-23 14:42 293K
20260423T12Z_MSC_RDPS_WindSpeed_IsbL-0010_RLatLon0.09_PT012H.grib2 2026-04-23 14:42 307K
20260423T12Z_MSC_RDPS_WindSpeed_IsbL-0020_RLatLon0.09_PT012H.grib2 2026-04-23 14:42 422K
20260423T12Z_MSC_RDPS_WindSpeed_IsbL-0030_RLatLon0.09_PT012H.grib2 2026-04-23 14:42 324K
20260423T12Z_MSC_RDPS_WindSpeed_IsbL-0050_RLatLon0.09_PT012H.grib2 2026-04-23 14:42 465K
20260423T12Z_MSC_RDPS_WindSpeed_IsbL-0100_RLatLon0.09_PT012H.grib2 2026-04-23 14:42 485K
20260423T12Z_MSC_RDPS_WindSpeed_IsbL-0150_RLatLon0.09_PT012H.grib2 2026-04-23 14:42 387K
20260423T12Z_MSC_RDPS_WindSpeed_IsbL-0175_RLatLon0.09_PT012H.grib2 2026-04-23 14:42 418K
20260423T12Z_MSC_RDPS_WindSpeed_IsbL-0200_RLatLon0.09_PT012H.grib2 2026-04-23 14:42 459K
20260423T12Z_MSC_RDPS_WindSpeed_IsbL-0225_RLatLon0.09_PT012H.grib2 2026-04-23 14:42 464K
20260423T12Z_MSC_RDPS_WindSpeed_IsbL-0250_RLatLon0.09_PT012H.grib2 2026-04-23 14:42 464K
20260423T12Z_MSC_RDPS_WindSpeed_IsbL-0275_RLatLon0.09_PT012H.grib2 2026-04-23 14:42 478K
20260423T12Z_MSC_RDPS_WindSpeed_IsbL-0300_RLatLon0.09_PT012H.grib2 2026-04-23 14:42 473K
20260423T12Z_MSC_RDPS_WindSpeed_IsbL-0350_RLatLon0.09_PT012H.grib2 2026-04-23 14:42 481K
20260423T12Z_MSC_RDPS_WindSpeed_IsbL-0400_RLatLon0.09_PT012H.grib2 2026-04-23 14:42 482K
20260423T12Z_MSC_RDPS_WindSpeed_IsbL-0450_RLatLon0.09_PT012H.grib2 2026-04-23 14:42 468K
20260423T12Z_MSC_RDPS_WindSpeed_IsbL-0500_RLatLon0.09_PT012H.grib2 2026-04-23 14:42 472K
20260423T12Z_MSC_RDPS_WindSpeed_IsbL-0550_RLatLon0.09_PT012H.grib2 2026-04-23 14:42 593K
20260423T12Z_MSC_RDPS_WindSpeed_IsbL-0600_RLatLon0.09_PT012H.grib2 2026-04-23 14:42 604K
20260423T12Z_MSC_RDPS_WindSpeed_IsbL-0650_RLatLon0.09_PT012H.grib2 2026-04-23 14:42 664K
20260423T12Z_MSC_RDPS_WindSpeed_IsbL-0700_RLatLon0.09_PT012H.grib2 2026-04-23 14:42 685K
20260423T12Z_MSC_RDPS_WindSpeed_IsbL-0750_RLatLon0.09_PT012H.grib2 2026-04-23 14:42 714K
20260423T12Z_MSC_RDPS_WindSpeed_IsbL-0800_RLatLon0.09_PT012H.grib2 2026-04-23 14:42 766K
20260423T12Z_MSC_RDPS_WindSpeed_IsbL-0850_RLatLon0.09_PT012H.grib2 2026-04-23 14:42 815K
20260423T12Z_MSC_RDPS_WindSpeed_IsbL-0875_RLatLon0.09_PT012H.grib2 2026-04-23 14:42 831K
20260423T12Z_MSC_RDPS_WindSpeed_IsbL-0900_RLatLon0.09_PT012H.grib2 2026-04-23 14:42 847K
20260423T12Z_MSC_RDPS_WindSpeed_IsbL-0925_RLatLon0.09_PT012H.grib2 2026-04-23 14:42 859K
20260423T12Z_MSC_RDPS_WindSpeed_IsbL-0950_RLatLon0.09_PT012H.grib2 2026-04-23 14:42 859K
20260423T12Z_MSC_RDPS_WindSpeed_IsbL-0970_RLatLon0.09_PT012H.grib2 2026-04-23 14:42 858K
20260423T12Z_MSC_RDPS_WindSpeed_IsbL-0985_RLatLon0.09_PT012H.grib2 2026-04-23 14:42 857K
20260423T12Z_MSC_RDPS_WindSpeed_IsbL-1000_RLatLon0.09_PT012H.grib2 2026-04-23 14:42 852K
20260423T12Z_MSC_RDPS_WindSpeed_IsbL-1015_RLatLon0.09_PT012H.grib2 2026-04-23 14:42 842K
20260423T12Z_MSC_RDPS_WindU_AGL-10m_RLatLon0.09_PT012H.grib2 2026-04-23 14:42 434K
20260423T12Z_MSC_RDPS_WindU_AGL-120m_RLatLon0.09_PT012H.grib2 2026-04-23 14:42 417K
20260423T12Z_MSC_RDPS_WindU_AGL-40m_RLatLon0.09_PT012H.grib2 2026-04-23 14:42 537K
20260423T12Z_MSC_RDPS_WindU_AGL-80m_RLatLon0.09_PT012H.grib2 2026-04-23 14:42 534K
20260423T12Z_MSC_RDPS_WindU_IsbL-0001_RLatLon0.09_PT012H.grib2 2026-04-23 14:42 238K
20260423T12Z_MSC_RDPS_WindU_IsbL-0005_RLatLon0.09_PT012H.grib2 2026-04-23 14:42 284K
20260423T12Z_MSC_RDPS_WindU_IsbL-0010_RLatLon0.09_PT012H.grib2 2026-04-23 14:42 297K
20260423T12Z_MSC_RDPS_WindU_IsbL-0020_RLatLon0.09_PT012H.grib2 2026-04-23 14:42 315K
20260423T12Z_MSC_RDPS_WindU_IsbL-0030_RLatLon0.09_PT012H.grib2 2026-04-23 14:42 355K
20260423T12Z_MSC_RDPS_WindU_IsbL-0050_RLatLon0.09_PT012H.grib2 2026-04-23 14:42 350K
20260423T12Z_MSC_RDPS_WindU_IsbL-0100_RLatLon0.09_PT012H.grib2 2026-04-23 14:42 475K
20260423T12Z_MSC_RDPS_WindU_IsbL-0150_RLatLon0.09_PT012H.grib2 2026-04-23 14:42 402K
20260423T12Z_MSC_RDPS_WindU_IsbL-0175_RLatLon0.09_PT012H.grib2 2026-04-23 14:42 432K
20260423T12Z_MSC_RDPS_WindU_IsbL-0200_RLatLon0.09_PT012H.grib2 2026-04-23 14:42 451K
20260423T12Z_MSC_RDPS_WindU_IsbL-0225_RLatLon0.09_PT012H.grib2 2026-04-23 14:42 454K
20260423T12Z_MSC_RDPS_WindU_IsbL-0250_RLatLon0.09_PT012H.grib2 2026-04-23 14:42 453K
20260423T12Z_MSC_RDPS_WindU_IsbL-0275_RLatLon0.09_PT012H.grib2 2026-04-23 14:42 364K
20260423T12Z_MSC_RDPS_WindU_IsbL-0300_RLatLon0.09_PT012H.grib2 2026-04-23 14:42 359K
20260423T12Z_MSC_RDPS_WindU_IsbL-0350_RLatLon0.09_PT012H.grib2 2026-04-23 14:42 364K
20260423T12Z_MSC_RDPS_WindU_IsbL-0400_RLatLon0.09_PT012H.grib2 2026-04-23 14:42 366K
20260423T12Z_MSC_RDPS_WindU_IsbL-0450_RLatLon0.09_PT012H.grib2 2026-04-23 14:42 471K
20260423T12Z_MSC_RDPS_WindU_IsbL-0500_RLatLon0.09_PT012H.grib2 2026-04-23 14:42 476K
20260423T12Z_MSC_RDPS_WindU_IsbL-0550_RLatLon0.09_PT012H.grib2 2026-04-23 14:42 480K
20260423T12Z_MSC_RDPS_WindU_IsbL-0600_RLatLon0.09_PT012H.grib2 2026-04-23 14:42 490K
20260423T12Z_MSC_RDPS_WindU_IsbL-0650_RLatLon0.09_PT012H.grib2 2026-04-23 14:42 489K
20260423T12Z_MSC_RDPS_WindU_IsbL-0700_RLatLon0.09_PT012H.grib2 2026-04-23 14:42 508K
20260423T12Z_MSC_RDPS_WindU_IsbL-0750_RLatLon0.09_PT012H.grib2 2026-04-23 14:42 534K
20260423T12Z_MSC_RDPS_WindU_IsbL-0800_RLatLon0.09_PT012H.grib2 2026-04-23 14:42 580K
20260423T12Z_MSC_RDPS_WindU_IsbL-0850_RLatLon0.09_PT012H.grib2 2026-04-23 14:42 622K
20260423T12Z_MSC_RDPS_WindU_IsbL-0875_RLatLon0.09_PT012H.grib2 2026-04-23 14:42 636K
20260423T12Z_MSC_RDPS_WindU_IsbL-0900_RLatLon0.09_PT012H.grib2 2026-04-23 14:42 648K
20260423T12Z_MSC_RDPS_WindU_IsbL-0925_RLatLon0.09_PT012H.grib2 2026-04-23 14:42 657K
20260423T12Z_MSC_RDPS_WindU_IsbL-0950_RLatLon0.09_PT012H.grib2 2026-04-23 14:42 653K
20260423T12Z_MSC_RDPS_WindU_IsbL-0970_RLatLon0.09_PT012H.grib2 2026-04-23 14:42 654K
20260423T12Z_MSC_RDPS_WindU_IsbL-0985_RLatLon0.09_PT012H.grib2 2026-04-23 14:42 793K
20260423T12Z_MSC_RDPS_WindU_IsbL-1000_RLatLon0.09_PT012H.grib2 2026-04-23 14:42 787K
20260423T12Z_MSC_RDPS_WindU_IsbL-1015_RLatLon0.09_PT012H.grib2 2026-04-23 14:42 779K
20260423T12Z_MSC_RDPS_WindV_AGL-10m_RLatLon0.09_PT012H.grib2 2026-04-23 14:42 432K
20260423T12Z_MSC_RDPS_WindV_AGL-120m_RLatLon0.09_PT012H.grib2 2026-04-23 14:42 414K
20260423T12Z_MSC_RDPS_WindV_AGL-40m_RLatLon0.09_PT012H.grib2 2026-04-23 14:42 419K
20260423T12Z_MSC_RDPS_WindV_AGL-80m_RLatLon0.09_PT012H.grib2 2026-04-23 14:42 416K
20260423T12Z_MSC_RDPS_WindV_IsbL-0001_RLatLon0.09_PT012H.grib2 2026-04-23 14:42 287K
20260423T12Z_MSC_RDPS_WindV_IsbL-0005_RLatLon0.09_PT012H.grib2 2026-04-23 14:42 326K
20260423T12Z_MSC_RDPS_WindV_IsbL-0010_RLatLon0.09_PT012H.grib2 2026-04-23 14:42 296K
20260423T12Z_MSC_RDPS_WindV_IsbL-0020_RLatLon0.09_PT012H.grib2 2026-04-23 14:42 317K
20260423T12Z_MSC_RDPS_WindV_IsbL-0030_RLatLon0.09_PT012H.grib2 2026-04-23 14:42 355K
20260423T12Z_MSC_RDPS_WindV_IsbL-0050_RLatLon0.09_PT012H.grib2 2026-04-23 14:42 352K
20260423T12Z_MSC_RDPS_WindV_IsbL-0100_RLatLon0.09_PT012H.grib2 2026-04-23 14:42 338K
20260423T12Z_MSC_RDPS_WindV_IsbL-0150_RLatLon0.09_PT012H.grib2 2026-04-23 14:42 401K
20260423T12Z_MSC_RDPS_WindV_IsbL-0175_RLatLon0.09_PT012H.grib2 2026-04-23 14:42 334K
20260423T12Z_MSC_RDPS_WindV_IsbL-0200_RLatLon0.09_PT012H.grib2 2026-04-23 14:42 349K
20260423T12Z_MSC_RDPS_WindV_IsbL-0225_RLatLon0.09_PT012H.grib2 2026-04-23 14:42 352K
20260423T12Z_MSC_RDPS_WindV_IsbL-0250_RLatLon0.09_PT012H.grib2 2026-04-23 14:42 375K
20260423T12Z_MSC_RDPS_WindV_IsbL-0275_RLatLon0.09_PT012H.grib2 2026-04-23 14:42 385K
20260423T12Z_MSC_RDPS_WindV_IsbL-0300_RLatLon0.09_PT012H.grib2 2026-04-23 14:42 380K
20260423T12Z_MSC_RDPS_WindV_IsbL-0350_RLatLon0.09_PT012H.grib2 2026-04-23 14:42 361K
20260423T12Z_MSC_RDPS_WindV_IsbL-0400_RLatLon0.09_PT012H.grib2 2026-04-23 14:42 363K
20260423T12Z_MSC_RDPS_WindV_IsbL-0450_RLatLon0.09_PT012H.grib2 2026-04-23 14:42 468K
20260423T12Z_MSC_RDPS_WindV_IsbL-0500_RLatLon0.09_PT012H.grib2 2026-04-23 14:42 472K
20260423T12Z_MSC_RDPS_WindV_IsbL-0550_RLatLon0.09_PT012H.grib2 2026-04-23 14:42 475K
20260423T12Z_MSC_RDPS_WindV_IsbL-0600_RLatLon0.09_PT012H.grib2 2026-04-23 14:42 486K
20260423T12Z_MSC_RDPS_WindV_IsbL-0650_RLatLon0.09_PT012H.grib2 2026-04-23 14:42 501K
20260423T12Z_MSC_RDPS_WindV_IsbL-0700_RLatLon0.09_PT012H.grib2 2026-04-23 14:42 519K
20260423T12Z_MSC_RDPS_WindV_IsbL-0750_RLatLon0.09_PT012H.grib2 2026-04-23 14:42 543K
20260423T12Z_MSC_RDPS_WindV_IsbL-0800_RLatLon0.09_PT012H.grib2 2026-04-23 14:42 573K
20260423T12Z_MSC_RDPS_WindV_IsbL-0850_RLatLon0.09_PT012H.grib2 2026-04-23 14:42 616K
20260423T12Z_MSC_RDPS_WindV_IsbL-0875_RLatLon0.09_PT012H.grib2 2026-04-23 14:42 630K
20260423T12Z_MSC_RDPS_WindV_IsbL-0900_RLatLon0.09_PT012H.grib2 2026-04-23 14:42 644K
20260423T12Z_MSC_RDPS_WindV_IsbL-0925_RLatLon0.09_PT012H.grib2 2026-04-23 14:42 653K
20260423T12Z_MSC_RDPS_WindV_IsbL-0950_RLatLon0.09_PT012H.grib2 2026-04-23 14:42 650K
20260423T12Z_MSC_RDPS_WindV_IsbL-0970_RLatLon0.09_PT012H.grib2 2026-04-23 14:42 650K
20260423T12Z_MSC_RDPS_WindV_IsbL-0985_RLatLon0.09_PT012H.grib2 2026-04-23 14:42 649K
20260423T12Z_MSC_RDPS_WindV_IsbL-1000_RLatLon0.09_PT012H.grib2 2026-04-23 14:42 783K
20260423T12Z_MSC_RDPS_WindV_IsbL-1015_RLatLon0.09_PT012H.grib2 2026-04-23 14:42 777K